IBE0457 LFBO-LFBD

Flight info

Callsign IBE0457
Flight time 0h 38m
Altitude 18000
Route LACOU G39 SECHE R17 MIRBA
Aircraft B738/M-SDE2E3FGHIRWXY/LB1

Departure

Time 2026-05-08 23:27
Airport Toulouse-Blagnac Airport (LFBO)

Arrival

Time 2026-05-09 00:05
Airport Bordeaux–Mérignac Airport (LFBD)
Time Latitude Longitude Altitude Speed Heading
2026-05-08 22:52 43.63059 1.37207 499 ft 0 kts 79°
2026-05-08 23:12 43.63057 1.37191 499 ft 2 kts 79°
2026-05-08 23:13 43.63055 1.37178 499 ft 2 kts 76°
2026-05-08 23:13 43.63048 1.37160 499 ft 2 kts 46°
2026-05-08 23:13 43.63036 1.37147 499 ft 2 kts 23°
2026-05-08 23:13 43.63021 1.37143 499 ft 2 kts
2026-05-08 23:14 43.63007 1.37146 499 ft 2 kts 337°
2026-05-08 23:14 43.62999 1.37152 499 ft 1 kts 323°
2026-05-08 23:14 43.62995 1.37156 499 ft 0 kts 323°
2026-05-08 23:17 43.63010 1.37131 499 ft 6 kts 299°
2026-05-08 23:17 43.63003 1.37060 499 ft 9 kts 236°
2026-05-08 23:17 43.62959 1.36969 499 ft 12 kts 252°
2026-05-08 23:17 43.62995 1.36849 499 ft 15 kts 321°
2026-05-08 23:18 43.63093 1.36743 499 ft 20 kts 322°
2026-05-08 23:18 43.63215 1.36616 499 ft 24 kts 323°
2026-05-08 23:18 43.63364 1.36462 499 ft 28 kts 323°
2026-05-08 23:18 43.63536 1.36287 498 ft 31 kts 327°
2026-05-08 23:19 43.63707 1.36107 498 ft 28 kts 331°
2026-05-08 23:19 43.63795 1.35999 497 ft 13 kts 289°
2026-05-08 23:19 43.63783 1.35884 497 ft 0 kts 242°
2026-05-08 23:19 43.63782 1.35880 497 ft 0 kts 237°
2026-05-08 23:20 43.63768 1.35852 497 ft 5 kts 234°
2026-05-08 23:21 43.63729 1.35809 498 ft 8 kts 196°
2026-05-08 23:21 43.63723 1.35806 498 ft 0 kts 211°
2026-05-08 23:21 43.63721 1.35794 498 ft 3 kts 253°
2026-05-08 23:21 43.63705 1.35739 498 ft 8 kts 244°
2026-05-08 23:22 43.63667 1.35656 498 ft 12 kts 230°
2026-05-08 23:22 43.63608 1.35547 499 ft 15 kts 242°
2026-05-08 23:22 43.63639 1.35400 499 ft 19 kts 316°
2026-05-08 23:22 43.63757 1.35271 498 ft 24 kts 322°
2026-05-08 23:23 43.63904 1.35118 497 ft 28 kts 321°
2026-05-08 23:23 43.64070 1.35035 497 ft 21 kts 32°
2026-05-08 23:23 43.64138 1.35137 496 ft 7 kts 42°
2026-05-08 23:23 43.64184 1.35207 496 ft 12 kts 51°
2026-05-08 23:24 43.64247 1.35319 495 ft 17 kts 54°
2026-05-08 23:24 43.64317 1.35415 495 ft 15 kts 15°
2026-05-08 23:24 43.64421 1.35359 495 ft 18 kts 314°
2026-05-08 23:24 43.64477 1.35178 495 ft 22 kts 285°
2026-05-08 23:25 43.64532 1.34959 496 ft 26 kts 292°
2026-05-08 23:25 43.64491 1.34768 497 ft 15 kts 232°
2026-05-08 23:25 43.64463 1.34722 497 ft 3 kts 229°
2026-05-08 23:25 43.64436 1.34680 497 ft 8 kts 229°
2026-05-08 23:26 43.64381 1.34641 497 ft 10 kts 173°
2026-05-08 23:26 43.64313 1.34695 497 ft 12 kts 138°
2026-05-08 23:26 43.64221 1.34793 497 ft 23 kts 141°
2026-05-08 23:26 43.63882 1.35152 498 ft 104 kts 144°
2026-05-08 23:27 43.63104 1.35964 513 ft 174 kts 137°
2026-05-08 23:27 43.62093 1.37094 1114 ft 197 kts 139°
2026-05-08 23:27 43.60998 1.38156 2287 ft 191 kts 142°
2026-05-08 23:27 43.59961 1.39237 3146 ft 193 kts 139°
2026-05-08 23:28 43.58887 1.40457 3774 ft 207 kts 139°
2026-05-08 23:28 43.57720 1.41737 4343 ft 225 kts 141°
2026-05-08 23:28 43.56399 1.42997 4885 ft 243 kts 153°
2026-05-08 23:28 43.54727 1.43606 5021 ft 253 kts 180°
2026-05-08 23:29 43.52969 1.43128 5048 ft 268 kts 204°
2026-05-08 23:29 43.51421 1.41650 5038 ft 270 kts 226°
2026-05-08 23:29 43.50324 1.39607 5030 ft 268 kts 243°
2026-05-08 23:29 43.49832 1.37145 5029 ft 267 kts 268°
2026-05-08 23:30 43.50175 1.34611 5031 ft 268 kts 293°
2026-05-08 23:30 43.51188 1.32484 5032 ft 268 kts 311°
2026-05-08 23:30 43.52651 1.30913 5024 ft 268 kts 333°
2026-05-08 23:30 43.54489 1.30318 5028 ft 270 kts 360°
2026-05-08 23:31 43.56323 1.30829 5038 ft 270 kts 17°
2026-05-08 23:31 43.58117 1.31715 5027 ft 271 kts 15°
2026-05-08 23:31 43.59980 1.32089 5028 ft 270 kts 358°
2026-05-08 23:31 43.61861 1.31913 5030 ft 269 kts 352°
2026-05-08 23:32 43.63724 1.31594 5028 ft 270 kts 351°
2026-05-08 23:32 43.65575 1.31290 5026 ft 270 kts 352°
2026-05-08 23:32 43.67449 1.30995 5024 ft 269 kts 350°
2026-05-08 23:32 43.69282 1.30373 5023 ft 269 kts 337°
2026-05-08 23:33 43.70983 1.29302 5023 ft 268 kts 331°
2026-05-08 23:33 43.72640 1.28106 5017 ft 268 kts 331°
2026-05-08 23:33 43.74311 1.26923 5040 ft 275 kts 332°
2026-05-08 23:33 43.76080 1.25730 5959 ft 281 kts 332°
2026-05-08 23:34 43.77805 1.24597 7171 ft 276 kts 332°
2026-05-08 23:34 43.79527 1.23470 8133 ft 279 kts 331°
2026-05-08 23:34 43.81286 1.22321 9108 ft 281 kts 331°
2026-05-08 23:34 43.83084 1.21141 10059 ft 284 kts 330°
2026-05-08 23:35 43.84868 1.19968 10628 ft 288 kts 331°
2026-05-08 23:35 43.86708 1.18762 10783 ft 289 kts 330°
2026-05-08 23:35 43.88528 1.17570 10802 ft 286 kts 330°
2026-05-08 23:35 43.90339 1.16381 10798 ft 285 kts 331°
2026-05-08 23:36 43.92149 1.15198 10791 ft 286 kts 331°
2026-05-08 23:36 43.93963 1.14010 10823 ft 293 kts 331°
2026-05-08 23:36 43.95900 1.12731 11217 ft 314 kts 331°
2026-05-08 23:36 43.97909 1.11402 11765 ft 329 kts 331°
2026-05-08 23:37 44.00042 1.09991 12260 ft 345 kts 331°
2026-05-08 23:37 44.02304 1.08496 12784 ft 361 kts 331°
2026-05-08 23:37 44.04628 1.06964 13531 ft 368 kts 331°
2026-05-08 23:37 44.06933 1.05446 14357 ft 372 kts 331°
2026-05-08 23:38 44.09288 1.03895 15091 ft 378 kts 331°
2026-05-08 23:38 44.11663 1.02330 15883 ft 383 kts 331°
2026-05-08 23:38 44.14091 1.00727 16653 ft 387 kts 331°
2026-05-08 23:38 44.16521 0.99120 17409 ft 391 kts 331°
2026-05-08 23:39 44.18996 0.97479 17885 ft 396 kts 331°
2026-05-08 23:39 44.21472 0.95832 17983 ft 398 kts 331°
2026-05-08 23:39 44.23988 0.94159 17995 ft 396 kts 331°
2026-05-08 23:39 44.26429 0.92469 17999 ft 396 kts 329°
2026-05-08 23:40 44.28763 0.90413 17998 ft 394 kts 318°
2026-05-08 23:40 44.30626 0.87667 17999 ft 388 kts 303°
2026-05-08 23:40 44.31990 0.84482 18002 ft 387 kts 296°
2026-05-08 23:40 44.33220 0.81134 18000 ft 386 kts 294°
2026-05-08 23:41 44.34410 0.77753 17999 ft 385 kts 294°
2026-05-08 23:41 44.35582 0.74409 18000 ft 386 kts 294°
2026-05-08 23:41 44.36765 0.71058 17998 ft 386 kts 295°
2026-05-08 23:41 44.37973 0.67671 18001 ft 385 kts 295°
2026-05-08 23:42 44.39176 0.64329 17998 ft 386 kts 295°
2026-05-08 23:42 44.40383 0.60995 17998 ft 385 kts 295°
2026-05-08 23:42 44.41594 0.57657 17997 ft 385 kts 295°
2026-05-08 23:42 44.42955 0.54426 17994 ft 386 kts 303°
2026-05-08 23:43 44.44771 0.51610 17996 ft 391 kts 316°
2026-05-08 23:43 44.47026 0.49434 17998 ft 395 kts 327°
2026-05-08 23:43 44.49451 0.47652 17997 ft 396 kts 330°
2026-05-08 23:43 44.51954 0.45978 17997 ft 396 kts 332°
2026-05-08 23:44 44.54445 0.44374 17873 ft 387 kts 332°
2026-05-08 23:44 44.56836 0.42846 17546 ft 376 kts 332°
2026-05-08 23:44 44.59220 0.41314 17069 ft 370 kts 332°
2026-05-08 23:44 44.61527 0.39815 16504 ft 367 kts 332°
2026-05-08 23:45 44.63851 0.38291 15907 ft 365 kts 331°
2026-05-08 23:45 44.66145 0.36777 15337 ft 362 kts 331°
2026-05-08 23:45 44.68426 0.35262 14765 ft 359 kts 331°
2026-05-08 23:45 44.70619 0.33620 14156 ft 354 kts 324°
2026-05-08 23:46 44.72481 0.31462 13574 ft 346 kts 308°
2026-05-08 23:46 44.73767 0.28678 13002 ft 340 kts 295°
2026-05-08 23:46 44.74768 0.25637 12414 ft 337 kts 291°
2026-05-08 23:46 44.75700 0.22620 12051 ft 338 kts 291°
2026-05-08 23:47 44.76642 0.19563 12003 ft 346 kts 292°
2026-05-08 23:47 44.77608 0.16478 11995 ft 340 kts 292°
2026-05-08 23:47 44.78567 0.13459 11995 ft 327 kts 292°
2026-05-08 23:47 44.79475 0.10621 11993 ft 314 kts 292°
2026-05-08 23:48 44.80368 0.07834 11992 ft 302 kts 292°
2026-05-08 23:48 44.81227 0.05151 11995 ft 291 kts 292°
2026-05-08 23:48 44.82064 0.02547 11995 ft 279 kts 292°
2026-05-08 23:48 44.82854 0.00092 11995 ft 269 kts 292°
2026-05-08 23:49 44.83627 -0.02320 11993 ft 267 kts 292°
2026-05-08 23:49 44.84394 -0.04720 11988 ft 268 kts 292°
2026-05-08 23:49 44.85153 -0.07101 11983 ft 268 kts 291°
2026-05-08 23:49 44.85913 -0.09487 11977 ft 269 kts 291°
2026-05-08 23:50 44.86679 -0.11896 11975 ft 268 kts 292°
2026-05-08 23:50 44.87442 -0.14292 11975 ft 268 kts 291°
2026-05-08 23:50 44.88208 -0.16697 11980 ft 268 kts 291°
2026-05-08 23:50 44.88921 -0.19136 11982 ft 268 kts 286°
2026-05-08 23:51 44.89325 -0.21685 11969 ft 266 kts 276°
2026-05-08 23:51 44.89513 -0.24277 11972 ft 264 kts 274°
2026-05-08 23:51 44.89663 -0.26798 11716 ft 261 kts 274°
2026-05-08 23:51 44.89840 -0.29365 11238 ft 264 kts 275°
2026-05-08 23:52 44.90043 -0.31932 10858 ft 262 kts 276°
2026-05-08 23:52 44.90261 -0.34512 10459 ft 261 kts 276°
2026-05-08 23:52 44.90483 -0.37085 10035 ft 262 kts 276°
2026-05-08 23:52 44.90702 -0.39635 9664 ft 261 kts 276°
2026-05-08 23:53 44.90919 -0.42182 9249 ft 261 kts 276°
2026-05-08 23:53 44.91130 -0.44676 8886 ft 259 kts 276°
2026-05-08 23:53 44.91342 -0.47210 8502 ft 258 kts 275°
2026-05-08 23:53 44.91553 -0.49721 8128 ft 257 kts 275°
2026-05-08 23:54 44.91761 -0.52196 7771 ft 253 kts 275°
2026-05-08 23:54 44.91969 -0.54698 7250 ft 255 kts 275°
2026-05-08 23:54 44.92174 -0.57169 6793 ft 255 kts 275°
2026-05-08 23:55 44.92573 -0.61930 6549 ft 229 kts 275°
2026-05-08 23:55 44.92753 -0.64071 6547 ft 209 kts 275°
2026-05-08 23:55 44.92918 -0.66063 6386 ft 199 kts 274°
2026-05-08 23:55 44.93076 -0.67962 6195 ft 193 kts 274°
2026-05-08 23:56 44.93227 -0.69803 5900 ft 189 kts 274°
2026-05-08 23:56 44.93378 -0.71672 5432 ft 195 kts 274°
2026-05-08 23:56 44.93534 -0.73589 5021 ft 196 kts 274°
2026-05-08 23:56 44.93690 -0.75488 4630 ft 197 kts 274°
2026-05-08 23:57 44.93846 -0.77413 4246 ft 197 kts 274°
2026-05-08 23:57 44.93996 -0.79265 3937 ft 188 kts 274°
2026-05-08 23:57 44.94142 -0.81053 3688 ft 177 kts 274°
2026-05-08 23:57 44.94281 -0.82729 3486 ft 165 kts 274°
2026-05-08 23:58 44.94408 -0.84284 3280 ft 155 kts 274°
2026-05-08 23:58 44.94528 -0.85761 3112 ft 148 kts 274°
2026-05-08 23:58 44.94644 -0.87199 3048 ft 148 kts 274°
2026-05-08 23:58 44.94681 -0.88653 3008 ft 148 kts 257°
2026-05-08 23:59 44.94204 -0.89892 2952 ft 143 kts 220°
2026-05-08 23:59 44.93397 -0.90707 2811 ft 142 kts 202°
2026-05-08 23:59 44.92477 -0.91099 2657 ft 138 kts 189°
2026-05-08 23:59 44.91538 -0.91439 2517 ft 138 kts 192°
2026-05-09 00:00 44.90613 -0.91819 2378 ft 140 kts 192°
2026-05-09 00:00 44.89671 -0.92207 2233 ft 139 kts 192°
2026-05-09 00:00 44.88728 -0.92540 2093 ft 139 kts 181°
2026-05-09 00:00 44.87815 -0.92242 1976 ft 134 kts 144°
2026-05-09 00:01 44.87118 -0.91382 1969 ft 133 kts 128°
2026-05-09 00:01 44.86720 -0.90217 1958 ft 132 kts 101°
2026-05-09 00:01 44.86511 -0.88940 1968 ft 134 kts 105°
2026-05-09 00:01 44.86247 -0.87658 1970 ft 133 kts 107°
2026-05-09 00:02 44.85983 -0.86405 1968 ft 133 kts 107°
2026-05-09 00:02 44.85723 -0.85143 1970 ft 133 kts 106°
2026-05-09 00:02 44.85457 -0.83877 1967 ft 133 kts 106°
2026-05-09 00:02 44.85194 -0.82622 1795 ft 135 kts 107°
2026-05-09 00:03 44.84935 -0.81367 1530 ft 130 kts 106°
2026-05-09 00:03 44.84679 -0.80124 1328 ft 130 kts 107°
2026-05-09 00:03 44.84420 -0.78895 1129 ft 130 kts 105°
2026-05-09 00:03 44.84180 -0.77650 936 ft 131 kts 101°
2026-05-09 00:04 44.83909 -0.76435 772 ft 128 kts 108°
2026-05-09 00:04 44.83645 -0.75237 509 ft 128 kts 107°
2026-05-09 00:04 44.83387 -0.74000 326 ft 127 kts 105°
2026-05-09 00:04 44.83136 -0.72833 162 ft 106 kts 105°
2026-05-09 00:05 44.82951 -0.71957 166 ft 63 kts 107°
2026-05-09 00:05 44.82870 -0.71562 167 ft 36 kts 106°
2026-05-09 00:05 44.82806 -0.71241 168 ft 31 kts 108°
2026-05-09 00:05 44.82845 -0.71110 167 ft 2 kts 48°
2026-05-09 00:06 44.82857 -0.71092 167 ft 2 kts 44°
2026-05-09 00:06 44.82872 -0.71072 167 ft 3 kts 42°
2026-05-09 00:06 44.82890 -0.71049 167 ft 3 kts 44°
2026-05-09 00:06 44.82910 -0.71019 167 ft 7 kts 45°
2026-05-09 00:07 44.82959 -0.70949 167 ft 9 kts 47°
2026-05-09 00:07 44.83015 -0.70868 166 ft 13 kts 45°
2026-05-09 00:07 44.83088 -0.70762 166 ft 17 kts 45°
2026-05-09 00:07 44.83170 -0.70646 166 ft 14 kts 46°
2026-05-09 00:08 44.83191 -0.70569 165 ft 5 kts 91°
2026-05-09 00:08 44.83199 -0.70500 165 ft 8 kts 66°
2026-05-09 00:08 44.83197 -0.70471 165 ft 1 kts 114°
2026-05-09 00:08 44.83183 -0.70438 165 ft 3 kts 132°
2026-05-09 00:09 44.83168 -0.70423 166 ft 0 kts 159°
2026-05-09 00:09 44.83167 -0.70423 166 ft 0 kts 159°